JA3VQW-13 Hirakata JP current weather conditions

sailwx.info

Wind from 270

Air temperature 18.3° C
Dewpoint 6.5° C

Last reported at 2016-Feb-13 03:52 UTC.
Time now 2016-Feb-13 04:42 UTC

Location: N 34°48' E 135°40'.
View on Google Maps.

See reports from other nearby stations

  
Tides and Currents Weather Stations Pressure Air Temp Water Temp Dewpoint Dewpoint Depression Visibility Wind Speed Wind Dir Waves Ship Positions
date/time (UTC)wind fromknots sea level pressurealtimeterstation pressurevisibilityair tempwater tempwave heightnotes
2016-Feb-13 03:52 270 18.3
2016-Feb-13 03:22 270 17.8
2016-Feb-13 02:52 270 16.7
2016-Feb-13 02:22 270 16.7
2016-Feb-13 01:52 141 16.1
2016-Feb-13 01:22 270 14.4
2016-Feb-13 00:52 270 13.3
2016-Feb-13 00:30 257 12.8
2016-Feb-13 00:22 259 12.8
2016-Feb-12 23:52 288 11.7
2016-Feb-12 23:22 270 11.1
2016-Feb-12 22:52 270 10.6
2016-Feb-12 22:22 248 10.6
2016-Feb-12 21:52 248 10.6
2016-Feb-12 21:22 270 10.6
2016-Feb-12 20:52 270 10.6
2016-Feb-12 20:45 270 10.6
2016-Feb-12 20:22 169 10.6
2016-Feb-12 19:52 270 10.6
2016-Feb-12 19:22 270 10.6
2016-Feb-12 18:52 270 10.6
2016-Feb-12 18:22 270 10.6
2016-Feb-12 17:52 270 10.6
2016-Feb-12 17:22 270 10.6
2016-Feb-12 16:52 270 10.6
2016-Feb-12 16:22 225 10.6
2016-Feb-12 15:52 206 10.6
2016-Feb-12 15:22 248 11.1
2016-Feb-12 14:52 270 11.1
2016-Feb-12 14:22 216 11.1
2016-Feb-12 13:52 270 11.1
2016-Feb-12 13:22 270 11.1
2016-Feb-12 12:52 270 11.1
2016-Feb-12 12:22 270 11.7
2016-Feb-12 11:52 270 11.1
2016-Feb-12 11:22 270 11.1
2016-Feb-12 11:00 270 11.7
2016-Feb-12 10:52 270 11.7
2016-Feb-12 10:22 270 11.7
2016-Feb-12 09:52 315 12.2
2016-Feb-12 09:22 248 12.8
2016-Feb-12 08:52 270 12.8
2016-Feb-12 08:22 315 13.3
2016-Feb-12 07:52 315 14.4
2016-Feb-12 07:22 315 15.0
2016-Feb-12 06:53 315 16.1
2016-Feb-12 06:22 292 17.8
2016-Feb-12 05:52 225 18.3
2016-Feb-12 05:22 300 18.9
2016-Feb-12 04:52 270 21.7
2016-Feb-12 04:22 270 20.0
2016-Feb-12 03:52 270 20.0
2016-Feb-12 03:22 292 19.4
2016-Feb-12 02:52 315 17.8
2016-Feb-12 02:22 315 15.0
2016-Feb-12 01:52 315 14.4
2016-Feb-12 01:22 292 13.3
2016-Feb-12 00:52 248 11.7
2016-Feb-12 00:22 248 10.6
2016-Feb-11 23:52 248 9.4
2016-Feb-11 23:22 248 8.3
2016-Feb-11 22:52 292 7.8
2016-Feb-11 22:45 301 7.8
2016-Feb-11 22:22 279 6.7
2016-Feb-11 21:52 204 5.6
2016-Feb-11 21:22 225 5.6
2016-Feb-11 20:52 236 6.1
2016-Feb-11 20:22 180 6.1
2016-Feb-11 19:52 225 5.6
2016-Feb-11 19:22 225 5.6
2016-Feb-11 18:52 225 5.6
2016-Feb-11 18:22 160 5.6
2016-Feb-11 17:52 270 5.0
2016-Feb-11 17:22 270 5.0
2016-Feb-11 16:52 270 5.6
2016-Feb-11 16:45 270 5.6
2016-Feb-11 16:22 270 5.6
2016-Feb-11 15:52 270 5.6
2016-Feb-11 15:45 270 5.6
2016-Feb-11 15:22 270 5.6
2016-Feb-11 14:52 270 5.6
2016-Feb-11 14:45 270 6.1
2016-Feb-11 14:22 270 6.1
2016-Feb-11 13:52 270 6.1
2016-Feb-11 13:30 270 6.7
2016-Feb-11 13:22 270 6.7
2016-Feb-11 12:52 270 6.7
2016-Feb-11 12:22 270 7.2
2016-Feb-11 11:52 270 7.8
2016-Feb-11 11:22 270 8.3
2016-Feb-11 10:52 270 8.3
2016-Feb-11 10:22 270 8.9
2016-Feb-11 09:52 270 10.0
2016-Feb-11 09:22 270 10.6
2016-Feb-11 08:52 270 11.7
2016-Feb-11 08:22 270 13.3
2016-Feb-11 07:52 270 16.7
2016-Feb-11 07:22 270 17.8
2016-Feb-11 06:52 270 18.3
2016-Feb-11 06:22 270 18.3
2016-Feb-11 05:52 270 18.3
2016-Feb-11 05:22 270 18.9
2016-Feb-11 04:52 270 17.8
2016-Feb-11 04:23 270 16.7